This is the latest recevied weather packets stored in our database for station/object EA1GHG-11. If no packets are shown the sender has not sent any weather packets the latest 10 day(s).
| Time | Temp. | Humidity | Pressure | Rain* | Wind** | Luminosity | Snow |
|---|---|---|---|---|---|---|---|
| 1787997694 | 20.56° C | 100% | 1025 hPa | - | - | - | - |
| 1787996194 | 21.11° C | 100% | 1025 hPa | - | - | - | - |
| 1787994694 | 20° C | 100% | 1025.1 hPa | - | - | - | - |
| 1787993203 | 18.89° C | 100% | 1024.9 hPa | - | - | - | - |
| 1787991694 | 16.67° C | 100% | 1024.9 hPa | - | - | - | - |
| 1787990193 | 15.56° C | 100% | 1025.1 hPa | - | - | - | - |
| 1787988693 | 15.56° C | 100% | 1024.9 hPa | - | - | - | - |
| 1787988095 | 15° C | 100% | 1025.2 hPa | - | - | - | - |
| 1787986595 | 13.33° C | 100% | 1025.2 hPa | - | - | - | - |
| 1787985094 | 12.78° C | 100% | 1025 hPa | - | - | - | - |
| 1787983594 | 12.78° C | 100% | 1024.9 hPa | - | - | - | - |
| 1787982094 | 11.67° C | 100% | 1024.9 hPa | - | - | - | - |
| 1787980594 | 11.67° C | 100% | 1024.9 hPa | - | - | - | - |
| 1787979094 | 11.67° C | 100% | 1024.9 hPa | - | - | - | - |
| 1787977594 | 12.22° C | 100% | 1025.1 hPa | - | - | - | - |
| 1787976094 | 11.67° C | 100% | 1025 hPa | - | - | - | - |
| 1787974594 | 11.11° C | 100% | 1025.1 hPa | - | - | - | - |
| 1787973094 | 11.11° C | 100% | 1025.2 hPa | - | - | - | - |
| 1787971593 | 11.11° C | 100% | 1025.3 hPa | - | - | - | - |
| 1787970093 | 11.67° C | 100% | 1025.3 hPa | - | - | - | - |
| 1787968593 | 11.67° C | 100% | 1025.3 hPa | - | - | - | - |
| 1787967092 | 11.67° C | 100% | 1025.4 hPa | - | - | - | - |
| 1787966494 | 12.22° C | 100% | 1025.4 hPa | - | - | - | - |
| 1787964994 | 12.22° C | 100% | 1025.6 hPa | - | - | - | - |
| 1787963494 | 12.22° C | 100% | 1025.6 hPa | - | - | - | - |
* Rain since midnight (hover to see other rain measurements)
** Current wind speed in m/s (hover to see current wind gust speed)